Showing default

GALAXY 11, 26038

Orbit data source: Space-Track

GALAXY 11, 26038 is a payload satellite owned by Panamsat (US) in GEO that was launched on Wed, 22 Dec 1999 UTC via an ARIANE 44L launch vehicle from the French Guiana (FRGUI). Payload-class satellites include a variety of spacecraft equipped with specific instruments for various scientific and technological missions. These include communications satellites like Starlink; space stations such as the ISS; scientific satellites like the Hubble; Earth observation satellites from companies like Planet Labs, Umbra, and HawkEye 360; GPS; miniature CubeSats for education and research; and military/defense satellites.

Not visible in the next 10 days
Identifier
26038, 1999-071A
Orbit
GEO
Country
Flag of USUS
Related business
Manufacturer
Hughes
Mission
Non-operational Commercial Communications
Bus & Motor
HS-702, R-4D-11-300
Mass
4,484 kg wet, ~4,400 kg dry
Launch date (UTC)
1999-12-22 (26 years ago)
Launch vehicle
ARIANE 44L
Launch site
French Guiana (FRGUI)
Object type
Payload
Rocket body
Debris
Shape & HBR
Box + 2 Pan, 17.0 m
Radar Cross Section
53.041 m², Large (>1 m²)

Expand to show TLE details & history
Last TLE update: 14 hours ago

TLE from 14 hours ago
0 GALAXY 11
1 26038U 99071A   25305.59537854  .00000092  00000-0  00000-0 0  9997
2 26038   6.1627  73.3443 0005017 306.9993 288.5818  0.99020500 94759
Epoch: 2025-11-01T14:17Z
TLE epoch observation values (Epoch: 2025-11-01T14:17:20.705Z)
Latitude
-5.06486°
Longitude
53.22191°
Altitude
36,134.645 km
Speed
3.062 km/s
True Right ascension
20h 34m 43s
True Declination
-5° 03' 35"
Sunlit
Object was in daylight at epoch
Visualization orbit readout
Latitude
Unknown
Longitude
Unknown
Altitude
Unknown
Speed
Unknown
Apparent Right ascension
Unknown
Apparent Declination
Unknown
Sunlit
N/A
Visualization observer readout
Local Sidereal Time
00:10:24
Azimuth
Unknown
Elevation
Unknown
Doppler factor
Unknown
Orbital elements
Apogee altitude
36,163.441 km
Perigee altitude
36,120.776 km
Semi-major axis
42,520.245 km
Eccentricity
0.0005
Inclination
6.1627°
RAAN
73.3443°
Arg. of periapsis
306.9993°
True anomaly
288.5273°
Mean anomaly
288.5818°
Eccentric anomaly
288.55455°
Mean motion
0.24754 °/min
Orbital period
1,454.3 mins
BSTAR
0
Loading maneuver chart data...
Computing Atmospheric mass density...
Loading historical data...
Loading historical data...
Loading historical data...
Loading historical data...
Loading historical data...
Loading historical data...
Loading historical data...
Other satellites on launch #71 in the year 1999 (1999-12-22 UTC)

Documentation

Showing up to 5 results
|